Back to catalog

STARLINK-11682

AliveCommunicationsVLEO
NORAD 64234·PAYLOAD·🇺🇸 United States

Launched Jun 3, 2025 from Cape Canaveral Space Force Station

Loading…

Next Passes (next 24 hours)

TLE

FreshSource: CelesTrak SupGP

Epoch: Sep 14, 2026, 13:54 UTC

1 64234C 25119B   26257.57965278 -.00003000  00000+0 -23324-4 0  2577
2 64234  43.0003 151.0542 0001728 259.2068 205.6666 15.70818418    14

Track STARLINK-11682 in real time with AllMySat

Download on the App Store